Weather History for Omak, WA

Change the Weather History Date:

Thursday, January 24, 2013

  Actual Average Record
Temperature  
Mean Temperature 19 °F 28 °F  
Max Temperature 27 °F 35 °F 47 °F (1947)
Min Temperature 11 °F 22 °F -18 °F (1949)
Degree Days  
Heating Degree Days 46 37  
Month to date heating degree days 1031 930  
Since 1 July heating degree days 3421 3679  
Cooling Degree Days 0 0  
Month to date cooling degree days 0 0  
Year to date cooling degree days 0 0  
Moisture  
Dew Point 20 °F    
Average Humidity 87    
Maximum Humidity 92    
Minimum Humidity 81    
Precipitation  
Precipitation 0.00 in 0.04 in 0.63 in (1959)
Month to date precipitation 0.59 1.46  
Year to date precipitation 0.59 1.46  
Sea Level Pressure  
Sea Level Pressure 30.22 in    
Wind  
Wind Speed 4 mph (South)    
Max Wind Speed 14 mph    
Max Gust Speed 16 mph    
Visibility 6 miles    
Events Fog    
T = Trace of Precipitation, MM = Missing Value Source: NWS Daily Summary

Daily Weather History Graph

Daily Weather History Graph

Search for Another Location

Airport:

Trip Planner

Search our weather history database for the weather conditions in past years. The results will help you decide how hot, cold, wet, or windy it might be!

Date:

Astronomy

Jan. 24, 2013 Rise Set
Actual Time 7:36 AM PST 4:44 PM PST
Civil Twilight 7:01 AM PST 5:19 PM PST
Nautical Twilight 6:23 AM PST 5:57 PM PST
Astronomical Twilight 5:46 AM PST 6:34 PM PST
Moon 2:48 PM PST (1/24) 5:40 AM PST (1/24)
Length of Visible Light 10h 17m
Length of Day
9h 08m
Waxing Gibbous, 95% of the Moon is Illuminated
Jan 24
Waxing Gibbous
Jan 26
Full
Feb 3
Last Quarter
Feb 9
New
Feb 17
First Quarter

Hourly Weather History & Observations

Time (PST) Temp. Windchill Dew Point Humidity Pressure Visibility Wind Dir Wind Speed Gust Speed Precip Events Conditions
12:01 AM 12.2 °F - 10.4 °F 92% 30.06 in 1.0 mi Calm Calm - N/A   Mist
12:06 AM 12.2 °F 6.1 °F 10.4 °F 92% 30.06 in 0.5 mi NNW 3.5 mph - N/A Fog Light Freezing Fog
12:13 AM 10.4 °F - 8.6 °F 92% 30.07 in 0.2 mi Calm Calm - N/A Fog Light Freezing Fog
12:25 AM 12.2 °F 6.1 °F 10.4 °F 92% 30.07 in 0.5 mi NE 3.5 mph - N/A Fog Light Freezing Fog
12:31 AM 14.0 °F - 12.2 °F 93% 30.08 in 1.2 mi Calm Calm - N/A   Overcast
12:40 AM 15.8 °F - 12.2 °F 86% 30.08 in 3.0 mi Calm Calm - N/A   Overcast
12:49 AM 17.6 °F - 14.0 °F 86% 30.09 in 5.0 mi Calm Calm - N/A   Overcast
12:53 AM 17.1 °F - 15.1 °F 92% 30.16 in 5.0 mi Calm Calm - N/A   Overcast
1:53 AM 21.0 °F - 19.0 °F 92% 30.17 in 7.0 mi Calm Calm - N/A   Overcast
2:53 AM 21.9 °F 13.4 °F 19.9 °F 92% 30.21 in 6.0 mi SSE 6.9 mph - N/A   Overcast
3:40 AM 24.8 °F 15.3 °F 23.0 °F 93% 30.17 in 9.0 mi South 9.2 mph - N/A   Overcast
3:53 AM 25.0 °F 16.3 °F 23.0 °F 92% 30.24 in 9.0 mi SSW 8.1 mph - N/A   Overcast
4:53 AM 25.0 °F 20.7 °F 21.9 °F 88% 30.26 in 8.0 mi ESE 3.5 mph - N/A   Overcast
5:41 AM 24.8 °F 20.5 °F 21.2 °F 86% 30.22 in 8.0 mi SSE 3.5 mph - N/A   Overcast
5:53 AM 25.0 °F 20.7 °F 21.9 °F 88% 30.28 in 7.0 mi ESE 3.5 mph - N/A   Overcast
6:17 AM 24.8 °F 20.5 °F 21.2 °F 86% 30.23 in 7.0 mi SE 3.5 mph - N/A   Overcast
6:53 AM 25.0 °F - 21.9 °F 88% 30.29 in 6.0 mi Calm Calm - N/A   Overcast
7:53 AM 25.0 °F - 23.0 °F 92% 30.31 in 4.0 mi Calm Calm - N/A   Overcast
8:53 AM 25.0 °F - 23.0 °F 92% 30.32 in 4.0 mi Calm Calm - N/A   Overcast
9:53 AM 26.1 °F - 23.0 °F 88% 30.33 in 5.0 mi Calm Calm - N/A   Overcast
10:53 AM 26.1 °F 21.9 °F 23.0 °F 88% 30.33 in 5.0 mi South 3.5 mph - N/A   Overcast
11:53 AM 27.0 °F 18.7 °F 23.0 °F 85% 30.33 in 10.0 mi South 8.1 mph - N/A   Overcast
12:53 PM 27.0 °F 20.5 °F 21.9 °F 81% 30.30 in 10.0 mi SSW 5.8 mph - N/A   Overcast
1:53 PM 27.0 °F 18.0 °F 21.9 °F 81% 30.29 in 10.0 mi SSW 9.2 mph - N/A   Overcast
2:53 PM 26.1 °F 16.8 °F 21.9 °F 84% 30.29 in 8.0 mi SSW 9.2 mph - N/A   Overcast
3:08 PM 26.6 °F 19.1 °F 23.0 °F 86% 30.22 in 8.0 mi SSW 6.9 mph - N/A   Overcast
3:37 PM 26.6 °F 18.2 °F 21.2 °F 80% 30.22 in 8.0 mi SSW 8.1 mph - N/A   Overcast
3:53 PM 26.1 °F 16.8 °F 21.9 °F 84% 30.27 in 8.0 mi SSW 9.2 mph - N/A   Overcast
4:53 PM 26.1 °F 20.5 °F 21.9 °F 84% 30.26 in 9.0 mi South 4.6 mph - N/A   Overcast
5:53 PM 26.1 °F 19.4 °F 21.9 °F 84% 30.25 in 9.0 mi South 5.8 mph - N/A   Overcast
6:53 PM 26.1 °F 18.4 °F 21.9 °F 84% 30.27 in 9.0 mi SSE 6.9 mph - N/A   Overcast
7:53 PM 26.1 °F 20.5 °F 23.0 °F 88% 30.26 in 8.0 mi SSW 4.6 mph - N/A   Overcast
8:02 PM 26.6 °F 19.1 °F 23.0 °F 86% 30.19 in 8.0 mi SSE 6.9 mph - N/A   Overcast
8:53 PM 26.1 °F 21.9 °F 23.0 °F 88% 30.24 in 6.0 mi SE 3.5 mph - N/A   Overcast
9:51 PM 26.6 °F - 23.0 °F 86% 30.17 in 8.0 mi Calm Calm - N/A   Overcast
9:53 PM 26.1 °F - 23.0 °F 88% 30.23 in 8.0 mi Calm Calm - N/A   Overcast
10:53 PM 27.0 °F - 23.0 °F 85% 30.22 in 8.0 mi Calm Calm - N/A   Overcast
11:53 PM 26.1 °F 21.9 °F 23.0 °F 88% 30.22 in 7.0 mi WSW 3.5 mph - N/A   Overcast